Temperature
9 11 11 11 11 12 12 12 12 12 10 10 11 11 12 11 10 11 10 10 10 9 9 9 9 9 10 10 10 10 10 10 10 10 10 9 9 9 9 9 9 9 9 9
10 10 10 10 10 10 10 11 11 11 9 10 10 11 11 11 10 10 10 9 9 8 8 8 9 9 9 9 10 10 10 10 9 9 9 9 9 9 9 9 9 8 8 8
10 9 8 9 9 9 10 10 11 10 9 9 10 11 12 11 10 9 9 8 8 8 8 8 8 9 9 9 9 9 9 9 9 9 9 8 8 8 8 8 8 8 8 8
9 8 8 8 9 9 10 9 9 9 9 10 10 11 12 11 10 10 9 8 8 7 7 7 7 8 8 8 8 8 8 8 8 8 8 8 8 8 8 8 8 7 7 7
8 7 8 8 8 8 9 8 8 8 9 9 9 9 12 11 10 10 9 8 7 6 6 6 7 7 8 8 8 8 8 8 8 8 8 7 7 7 7 7 7 7 7 7
7 7 7 8 7 8 7 8 8 8 8 8 9 10 12 11 11 11 10 8 6 6 6 6 6 6 7 7 7 7 7 7 7 7 7 7 7 7 7 7 6 6 6 6
7 7 6 6 7 7 8 8 8 8 8 9 8 9 11 11 10 9 9 7 6 5 5 5 5 6 6 6 6 7 7 7 7 6 6 6 6 6 6 6 6 6 6 5
7 7 6 6 7 7 7 8 9 9 10 10 8 9 11 9 8 7 7 6 5 5 5 5 5 5 5 6 6 6 6 6 6 6 6 6 6 6 5 5 5 5 5 5
7 7 6 5 6 7 7 7 8 8 7 8 10 10 10 8 7 7 6 6 5 5 4 4 5 5 5 5 5 5 5 5 5 5 5 5 5 5 5 5 4 4 4 4
6 6 5 5 5 6 6 7 6 7 8 9 10 10 10 8 8 7 7 6 5 4 4 4 4 4 4 5 5 5 5 4 4 5 5 5 5 4 4 4 4 4 4 4
5 5 5 5 5 6 5 5 6 7 7 8 9 10 9 8 7 7 6 5 4 4 4 3 4 4 4 4 4 4 4 4 4 4 4 4 4 4 4 4 3 3 3 3
4 5 5 5 4 4 5 6 6 6 6 6 8 10 7 7 6 6 5 4 4 3 3 3 3 3 3 3 3 3 3 3 3 3 3 3 3 3 3 3 3 3 3 3
3 3 5 5 4 3 4 4 4 4 5 6 7 9 6 5 5 4 4 4 3 3 3 3 3 3 3 3 3 3 3 2 2 2 2 2 2 2 2 2 2 2 2 2
3 3 4 6 6 5 3 3 3 4 5 6 7 7 6 5 5 5 4 3 3 2 2 2 2 2 2 2 2 2 2 2 2 2 2 2 2 2 2 2 2 2 2 2
2 2 2 3 3 3 3 3 3 3 5 5 6 6 6 6 5 4 3 3 2 2 2 2 2 2 1 2 2 2 1 1 1 1 1 1 1 1 1 1 1 1 1 1
1 1 1 2 2 2 2 3 3 3 3 4 4 5 5 5 4 3 3 2 2 2 1 1 1 1 1 1 1 1 1 1 1 1 1 1 0 1 1 1 0 0 0 0
0 0 1 3 2 1 3 3 3 3 3 3 4 5 4 4 3 3 3 2 2 1 1 1 1 1 1 1 1 1 0 0 0 0 0 0 -0 -0 -0 -0 -0 -0 -0 -0
-1 -0 1 2 1 2 5 3 3 3 3 3 3 3 3 3 2 2 2 1 1 1 0 0 0 1 0 0 0 0 -0 -0 -0 -0 -0 -0 -0 -1 -1 -1 -1 -1 -1 -1
-0 0 1 1 2 4 4 2 2 2 3 2 2 2 2 1 1 1 1 1 1 0 0 0 0 0 0 -0 -0 -0 -1 -1 -1 -1 -1 -1 -1 -1 -1 -1 -1 -1 -1 -1
-1 -1 0 1 2 3 4 2 1 2 3 2 1 1 1 1 3 3 1 0 0 0 0 -0 -0 -0 -0 -1 -1 -1 -1 -1 -1 -1 -1 -1 -2 -2 -2 -2 -2 -2 -2 -1
-1 -1 -0 1 2 3 2 -0 1 3 3 1 1 1 0 1 1 1 0 0 -0 -0 -0 -0 -1 -1 -1 -1 -1 -1 -1 -1 -2 -2 -2 -2 -2 -2 -2 -2 -2 -2 -2 -2
0 0 -0 0 1 2 0 -0 1 2 1 0 0 0 -0 -0 -0 -0 -0 -1 -1 -1 -1 -1 -1 -1 -2 -2 -2 -2 -2 -2 -2 -2 -2 -2 -2 -2 -2 -2 -2 -2 -2 -2
-0 0 1 1 2 1 -1 -0 -0 -0 -0 -1 -1 -1 -1 -1 -1 -1 -1 -1 -1 -1 -1 -1 -2 -2 -2 -2 -2 -2 -2 -3 -3 -3 -3 -3 -3 -3 -3 -3 -3 -3 -3 -3
-1 -2 -1 -1 -0 -1 -2 -1 -1 -1 -1 -1 -1 -1 -1 -1 -1 -1 -2 -2 -2 -2 -2 -2 -2 -2 -2 -2 -3 -3 -3 -3 -3 -3 -3 -3 -3 -3 -3 -3 -3 -3 -3 -4
-1 -2 -2 -2 -1 -2 -2 -2 -1 -1 -1 -1 -1 -1 -1 -2 -2 -2 -2 -2 -2 -2 -2 -2 -3 -3 -3 -3 -3 -3 -3 -4 -4 -4 -4 -4 -4 -4 -4 -4 -4 -4 -4 -4
-2 -2 -1 0 -1 -1 -1 -1 -1 -2 -2 -2 -2 -2 -2 -2 -2 -3 -3 -3 -3 -3 -3 -3 -3 -3 -3 -3 -3 -4 -4 -4 -4 -4 -4 -4 -4 -4 -5 -4 -4 -4 -4 -4
Wind_Speed
2 3 5 7 8 5 5 7 8 6 2 4 9 10 10 8 6 6 6 5 5 4 2 2 2 3 3 3 4 3 3 3 3 2 2 1 1 0 0 1 0 1 1 1
3 5 5 3 5 5 6 7 8 5 2 4 8 11 10 8 7 7 6 5 5 4 3 3 3 3 4 4 4 3 3 3 3 2 2 1 1 1 1 1 1 0 1 2
6 1 2 4 5 6 8 9 8 5 3 3 6 9 9 7 6 5 5 5 4 4 4 3 3 4 4 4 4 3 3 3 3 2 2 2 1 1 1 1 1 0 1 2
3 2 3 5 5 6 7 6 6 5 5 4 4 7 8 6 5 5 4 4 3 3 3 3 3 3 3 3 3 3 3 3 3 3 3 3 3 3 2 2 1 1 1 1
3 2 3 5 5 6 3 1 4 5 6 5 6 7 6 4 6 6 5 3 2 1 2 2 2 3 3 2 2 2 2 2 2 3 3 3 3 2 1 1 2 2 1 1
2 2 2 3 2 4 3 2 1 2 4 6 8 8 7 6 7 6 5 4 2 1 1 1 1 1 2 2 1 2 2 2 2 2 3 3 3 3 2 2 2 1 1 2
3 3 2 2 3 4 5 4 2 4 5 7 4 7 7 3 4 5 5 5 3 2 1 1 1 1 1 1 1 1 2 2 2 2 3 3 4 3 3 3 2 2 2 2
5 5 5 4 4 5 8 7 5 5 6 5 5 8 5 1 2 3 3 4 3 2 1 1 1 1 1 1 1 2 2 2 2 2 3 3 3 3 2 3 3 3 2 2
5 4 2 3 2 5 5 7 5 3 4 6 7 6 5 2 2 2 3 4 3 2 1 1 1 1 1 0 0 1 2 2 2 2 3 3 3 3 3 3 3 3 2 2
3 3 3 2 3 2 3 4 4 5 5 8 8 8 6 5 5 4 4 4 2 2 1 1 1 1 0 0 1 1 1 2 2 2 2 2 3 3 3 3 3 2 2 2
3 3 2 4 7 7 5 5 4 4 5 6 7 5 2 5 5 5 5 3 2 2 1 1 1 0 1 1 1 1 1 1 2 2 2 2 2 2 2 2 2 2 2 2
3 3 4 6 3 4 6 7 7 6 6 6 7 6 1 2 3 4 4 3 2 2 1 1 1 1 1 1 1 1 1 1 2 2 2 2 2 2 2 2 2 2 2 2
4 4 3 3 4 5 6 6 7 4 4 7 8 6 1 1 2 3 3 3 2 2 1 1 1 1 1 1 1 1 1 2 2 2 2 2 2 2 2 3 3 3 3 3
3 4 7 9 4 4 6 8 9 8 8 10 13 11 5 5 5 4 4 4 3 3 2 1 0 0 1 1 1 2 2 2 2 2 2 2 2 3 3 3 3 3 3 3
3 5 6 9 7 5 8 10 12 14 13 12 12 12 11 8 7 5 4 3 3 3 2 2 2 2 1 1 2 2 2 2 2 2 2 3 3 3 3 3 3 3 3 3
3 4 4 7 7 7 9 12 14 15 14 15 14 14 9 7 6 6 6 5 5 4 4 3 3 2 2 2 2 2 3 3 2 2 3 3 3 3 3 3 3 4 3 3
4 5 5 6 5 5 11 13 14 12 12 12 15 13 6 6 7 7 7 6 6 6 5 4 4 3 3 3 3 3 3 3 2 3 3 2 3 3 3 3 3 4 4 4
6 5 4 4 3 9 6 3 9 12 13 12 10 8 7 7 7 6 6 7 6 5 5 5 4 4 4 3 3 3 3 3 3 3 3 3 3 3 3 3 3 4 3 4
7 6 4 4 6 10 7 4 5 8 9 9 11 9 6 3 4 4 4 5 5 5 5 4 4 3 3 3 2 2 2 2 3 3 3 3 3 3 3 4 4 4 4 4
4 4 5 5 6 8 5 2 3 4 8 6 7 8 6 3 5 5 2 3 4 4 3 3 2 2 2 2 2 2 2 3 3 4 4 3 3 3 4 4 4 4 4 4
4 5 7 8 8 8 3 1 4 6 4 2 5 7 6 6 6 3 2 2 2 2 2 1 2 2 2 2 1 2 3 3 4 4 4 4 4 4 4 4 4 4 4 3
8 6 7 6 7 8 2 5 6 4 2 2 3 4 5 5 4 2 2 2 2 2 2 2 2 2 2 1 2 3 3 4 3 3 3 4 4 3 3 4 4 3 3 3
8 7 5 8 7 3 5 5 4 2 3 3 3 3 3 3 4 3 3 3 2 2 2 2 2 2 2 2 2 3 4 4 3 3 3 4 4 3 3 4 4 4 4 3
5 4 5 6 8 6 6 6 4 3 3 3 3 3 3 4 4 3 3 3 3 3 2 2 2 2 3 3 3 4 4 3 3 3 4 3 3 3 3 3 3 3 4 4
5 5 6 8 7 6 7 7 6 4 3 3 2 3 4 4 4 4 3 4 3 3 3 2 3 3 4 3 4 4 4 3 3 3 3 3 3 3 3 3 3 4 4 4
7 8 8 8 6 6 5 4 5 4 5 5 4 4 4 4 5 4 4 4 3 3 3 3 3 4 4 4 4 4 3 3 3 3 3 3 3 3 3 3 3 3 4 5
Wind_Direction
138 181 203 209 220 238 223 227 242 249 256 240 244 257 265 271 262 257 252 247 240 239 227 198 179 176 168 165 169 171 169 167 164 159 163 176 189 180 100 62 45 239 235 214
164 221 231 220 208 212 218 231 247 257 261 260 263 264 262 255 252 253 252 250 246 242 222 199 185 179 178 176 175 171 175 175 178 183 185 198 190 203 191 131 108 257 249 233
207 211 182 188 194 210 229 236 243 255 280 247 275 262 243 235 240 248 250 247 243 234 231 218 203 195 191 187 187 182 180 179 179 174 160 152 162 178 200 209 214 235 259 247
216 229 194 193 212 221 238 242 238 240 257 256 250 268 246 226 228 230 234 236 238 232 226 219 211 205 202 202 195 189 182 182 178 176 184 194 208 218 232 236 235 248 244 257
209 192 200 216 227 218 232 205 225 234 244 260 234 251 258 214 231 230 223 220 215 219 222 216 209 207 199 194 192 192 183 184 184 188 193 205 219 232 234 233 233 248 250 255
239 232 237 235 231 205 171 158 174 218 229 247 228 233 261 222 227 226 219 215 210 187 149 144 152 161 166 163 173 188 185 190 190 196 202 210 215 219 224 237 238 249 261 272
222 223 217 202 171 178 202 199 212 219 225 241 205 233 250 231 229 231 221 209 200 185 157 126 129 148 153 164 178 190 197 200 197 202 215 225 227 226 227 237 244 249 255 269
211 225 199 203 214 203 205 214 220 238 245 248 220 234 238 240 266 253 224 200 191 188 185 170 140 138 148 162 190 206 214 220 224 221 229 234 232 235 241 245 248 246 249 258
215 223 179 214 233 201 193 215 239 248 272 264 238 243 253 235 232 218 201 189 185 187 184 177 150 130 146 148 222 230 220 230 242 249 243 240 242 242 244 250 249 249 256 267
215 232 226 209 190 205 230 186 190 211 234 249 248 242 232 207 214 209 200 192 184 179 173 175 166 149 109 79 48 18 255 245 253 255 259 257 250 250 251 252 253 256 262 271
214 210 210 202 207 203 184 193 207 212 241 247 255 245 222 216 213 215 214 211 198 184 166 157 157 125 73 64 55 38 351 278 264 265 267 271 275 261 254 257 260 258 258 260
200 217 234 235 241 255 227 217 202 218 227 237 260 259 88 235 219 214 213 209 200 187 166 142 113 83 64 46 34 16 348 310 283 271 265 267 273 276 263 261 267 261 259 261
180 192 222 226 209 207 223 222 220 228 225 226 241 251 65 225 225 223 216 214 205 190 169 140 113 83 37 360 348 341 328 323 309 283 267 264 269 276 276 272 270 265 262 262
205 218 234 245 259 209 222 221 211 208 227 236 241 256 258 249 247 246 235 227 217 201 199 216 248 306 325 314 313 318 325 330 318 297 279 274 279 282 281 285 278 268 263 262
207 238 246 263 272 245 237 230 217 219 229 239 250 251 257 251 248 245 235 229 222 219 229 250 261 274 296 313 315 312 314 322 320 301 293 293 295 292 288 285 284 274 265 265
204 230 246 263 255 249 253 242 230 232 238 244 257 262 265 259 248 241 234 227 227 236 243 250 257 268 280 292 300 305 310 315 310 299 295 301 299 295 293 291 286 280 274 267
199 200 221 253 262 268 255 237 224 228 229 230 243 253 251 249 245 242 239 233 238 244 246 247 251 258 268 274 279 289 304 304 301 297 288 289 291 292 294 294 287 282 277 273
202 203 220 243 229 241 253 238 219 230 238 231 243 257 250 251 255 250 239 232 245 249 251 255 260 266 272 280 283 289 296 295 293 290 286 286 290 292 298 297 292 287 280 272
212 204 206 214 237 261 260 227 212 222 248 230 236 250 258 269 263 250 234 239 248 249 252 255 261 266 272 277 282 287 293 293 290 290 290 287 286 287 287 288 291 290 281 275
199 200 206 209 231 243 258 214 217 211 251 224 221 229 231 214 243 251 244 257 264 257 255 257 257 260 266 282 286 278 284 288 285 287 288 288 280 277 279 283 288 289 283 278
191 203 215 222 235 257 273 168 168 208 257 207 218 222 218 228 251 266 239 255 260 261 257 246 241 252 262 269 271 276 283 283 287 287 284 283 278 278 278 281 283 283 280 277
196 196 205 210 226 244 170 157 201 250 323 242 233 230 228 246 262 256 233 238 249 257 260 245 246 269 282 269 260 278 287 294 294 284 278 279 282 283 278 277 280 275 270 270
214 212 210 211 229 269 190 216 243 263 255 262 258 252 233 239 250 251 245 243 245 247 252 249 241 269 288 282 260 272 287 296 290 279 276 279 280 279 275 273 274 274 265 261
227 227 225 243 254 252 238 249 256 251 250 259 257 241 219 229 238 243 244 248 253 251 252 248 246 265 281 285 281 279 289 290 282 276 277 276 274 277 277 273 269 268 266 262
226 194 221 245 263 265 248 239 242 246 251 247 247 236 223 221 231 236 245 252 256 260 262 250 246 257 273 285 286 290 292 290 282 279 278 278 275 273 277 276 275 271 268 267
215 207 213 236 232 230 244 231 219 221 236 239 243 249 242 231 231 243 252 257 255 257 263 262 260 264 273 280 285 290 290 283 274 273 274 276 275 275 277 283 293 298 282 288
Height
1505 1505 1503 1503 1504 1503 1502 1502 1502 1505 1509 1509 1505 1504 1503 1504 1504 1503 1503 1503 1503 1503 1503 1504 1505 1506 1507 1508 1510 1511 1512 1513 1514 1514 1515 1515 1515 1516 1516 1516 1516 1516 1516 1516
1504 1503 1504 1506 1507 1507 1505 1505 1503 1506 1510 1508 1504 1502 1500 1501 1502 1501 1501 1501 1501 1501 1501 1502 1502 1504 1505 1506 1507 1508 1510 1511 1511 1512 1512 1513 1513 1513 1513 1513 1513 1513 1513 1513
1500 1504 1506 1506 1506 1506 1505 1504 1503 1506 1509 1508 1506 1496 1494 1496 1499 1499 1499 1499 1499 1499 1499 1499 1500 1501 1502 1503 1504 1505 1507 1508 1509 1509 1510 1510 1510 1510 1510 1510 1510 1510 1510 1510
1503 1506 1506 1505 1505 1505 1503 1505 1506 1508 1507 1502 1505 1493 1486 1490 1494 1495 1496 1496 1496 1497 1497 1497 1497 1498 1499 1501 1502 1503 1504 1505 1506 1506 1507 1507 1507 1507 1507 1507 1507 1507 1507 1506
1503 1506 1505 1504 1504 1505 1504 1507 1508 1507 1506 1506 1502 1500 1482 1488 1489 1490 1492 1494 1495 1495 1495 1495 1495 1496 1497 1498 1499 1500 1501 1502 1503 1503 1504 1504 1504 1504 1504 1504 1504 1504 1504 1503
1505 1507 1506 1505 1506 1507 1508 1508 1509 1508 1506 1505 1497 1496 1480 1482 1483 1485 1489 1492 1493 1494 1494 1494 1493 1494 1494 1495 1496 1497 1498 1499 1500 1500 1500 1501 1501 1501 1501 1501 1501 1501 1500 1500
1503 1504 1506 1506 1505 1507 1506 1505 1504 1503 1501 1492 1496 1493 1480 1479 1483 1485 1487 1489 1491 1492 1492 1492 1491 1492 1492 1492 1493 1494 1495 1496 1497 1497 1498 1498 1498 1498 1498 1498 1497 1497 1497 1496
1497 1497 1502 1504 1502 1502 1503 1500 1499 1495 1488 1483 1496 1487 1477 1483 1485 1485 1487 1488 1489 1490 1490 1490 1490 1490 1490 1491 1491 1491 1492 1493 1494 1494 1494 1494 1494 1494 1494 1495 1494 1494 1493 1493
1495 1495 1501 1503 1503 1502 1501 1499 1499 1499 1501 1492 1480 1479 1478 1482 1483 1484 1485 1486 1487 1488 1488 1488 1488 1488 1488 1488 1488 1489 1489 1490 1490 1491 1491 1491 1491 1491 1491 1491 1491 1490 1490 1489
1498 1499 1501 1502 1503 1503 1501 1499 1501 1499 1494 1483 1473 1473 1470 1477 1479 1481 1482 1483 1485 1486 1486 1486 1486 1486 1486 1486 1486 1486 1487 1487 1487 1487 1488 1488 1488 1488 1488 1487 1487 1487 1486 1486
1500 1500 1500 1501 1498 1496 1501 1501 1498 1495 1492 1482 1473 1467 1471 1474 1477 1479 1481 1482 1483 1484 1484 1484 1484 1484 1484 1484 1484 1484 1484 1484 1484 1484 1484 1484 1484 1484 1484 1484 1484 1483 1483 1482
1499 1498 1495 1496 1498 1499 1497 1494 1494 1493 1493 1490 1478 1470 1476 1476 1478 1479 1480 1481 1482 1482 1483 1483 1483 1483 1482 1482 1482 1482 1482 1481 1481 1481 1481 1481 1481 1480 1480 1480 1480 1480 1479 1479
1498 1499 1493 1490 1497 1499 1497 1495 1495 1495 1491 1487 1479 1470 1477 1477 1478 1479 1480 1480 1481 1481 1481 1481 1481 1481 1481 1480 1480 1480 1479 1479 1478 1478 1478 1477 1477 1477 1477 1477 1477 1476 1476 1476
1496 1496 1490 1480 1478 1485 1491 1493 1494 1493 1486 1480 1475 1470 1475 1476 1477 1478 1478 1479 1479 1480 1479 1479 1479 1479 1479 1478 1478 1478 1477 1476 1476 1475 1475 1474 1474 1474 1474 1473 1473 1473 1473 1472
1495 1492 1493 1489 1488 1488 1486 1487 1489 1489 1481 1477 1470 1472 1470 1473 1475 1476 1477 1477 1477 1477 1477 1477 1477 1477 1477 1476 1476 1475 1474 1474 1473 1472 1472 1472 1471 1471 1471 1470 1470 1469 1469 1469
1494 1492 1493 1489 1488 1488 1485 1481 1482 1483 1480 1477 1475 1472 1470 1472 1473 1474 1474 1474 1475 1475 1475 1475 1474 1474 1474 1474 1473 1472 1472 1471 1470 1470 1470 1469 1468 1468 1467 1467 1466 1466 1465 1465
1492 1492 1489 1481 1487 1487 1476 1470 1474 1474 1472 1472 1469 1465 1468 1469 1470 1470 1470 1471 1472 1472 1472 1472 1472 1472 1471 1471 1470 1470 1469 1468 1468 1467 1467 1466 1466 1465 1464 1463 1463 1462 1462 1461
1489 1489 1487 1483 1486 1478 1461 1466 1466 1467 1466 1467 1466 1465 1465 1465 1466 1466 1467 1468 1468 1469 1469 1469 1469 1469 1469 1468 1468 1467 1466 1466 1465 1465 1464 1463 1463 1462 1461 1460 1460 1459 1458 1457
1484 1485 1483 1481 1473 1462 1461 1464 1465 1465 1461 1462 1463 1463 1464 1464 1464 1463 1464 1465 1465 1465 1466 1466 1466 1466 1465 1465 1465 1464 1464 1463 1463 1462 1461 1461 1460 1459 1458 1458 1457 1456 1455 1454
1483 1483 1481 1478 1470 1460 1454 1460 1462 1464 1458 1458 1459 1460 1461 1462 1461 1459 1461 1461 1462 1463 1463 1463 1463 1462 1462 1462 1461 1461 1461 1460 1460 1459 1459 1458 1458 1457 1456 1455 1454 1453 1452 1451
1479 1479 1477 1473 1466 1456 1457 1460 1461 1460 1452 1455 1456 1456 1458 1459 1458 1458 1458 1459 1459 1460 1460 1460 1460 1459 1459 1459 1459 1458 1458 1457 1457 1457 1456 1455 1455 1454 1453 1451 1450 1449 1448 1447
1468 1469 1472 1470 1465 1457 1457 1459 1457 1453 1453 1453 1453 1454 1455 1455 1455 1455 1456 1456 1457 1457 1457 1457 1457 1457 1456 1456 1456 1455 1455 1455 1454 1454 1453 1452 1451 1450 1449 1448 1447 1446 1445 1444
1462 1461 1459 1459 1455 1454 1454 1453 1452 1452 1452 1452 1452 1452 1453 1453 1453 1453 1453 1454 1454 1455 1455 1455 1454 1454 1454 1454 1453 1453 1452 1452 1451 1450 1450 1449 1448 1447 1446 1445 1444 1443 1442 1441
1459 1460 1459 1457 1452 1452 1451 1450 1450 1450 1450 1450 1450 1450 1451 1451 1451 1451 1451 1451 1452 1452 1452 1452 1452 1451 1451 1451 1451 1450 1449 1449 1448 1447 1446 1445 1444 1443 1442 1441 1440 1439 1438 1437
1452 1456 1455 1453 1450 1449 1447 1447 1447 1448 1448 1448 1448 1448 1448 1448 1448 1449 1449 1449 1449 1449 1449 1449 1449 1449 1448 1448 1448 1447 1446 1446 1445 1444 1443 1442 1441 1440 1439 1438 1437 1436 1435 1435
1448 1449 1448 1443 1443 1444 1443 1443 1444 1445 1445 1445 1445 1445 1446 1446 1446 1446 1446 1446 1446 1446 1446 1446 1446 1445 1445 1445 1444 1444 1443 1442 1441 1440 1440 1438 1437 1437 1436 1434 1433 1432 1432 1431